Temperature
20 20 20 20 20 20 20 20 20 19 19 19 19 19 19 19 19 19 18 18 18 18 18 18 18 18 18 18 18 18 18 18 18 18 18 18 18 18 18 18 18 18 18
20 20 20 20 20 20 20 20 20 19 19 19 19 19 19 19 19 19 18 18 19 19 18 18 18 18 18 18 18 18 18 18 18 18 18 18 18 18 18 18 18 18 18
20 21 20 20 20 20 20 20 20 20 19 19 19 19 18 18 18 19 19 19 19 19 18 18 18 18 18 18 18 18 18 18 18 18 17 18 18 18 18 18 18 18 18
21 21 21 21 21 21 20 20 20 20 19 19 19 19 19 19 19 19 19 19 18 18 18 18 18 18 18 18 18 18 18 18 17 17 17 17 17 17 17 18 18 18 18
22 22 22 22 21 21 21 20 20 20 20 19 19 19 19 19 19 19 19 19 19 19 18 18 18 18 18 18 18 18 18 18 18 17 17 17 17 17 17 17 18 18 18
22 22 22 22 22 21 21 20 20 20 20 20 19 19 19 19 19 19 19 19 19 19 18 18 18 18 18 18 18 18 18 18 18 17 17 17 17 17 17 17 17 17 18
22 22 22 22 22 21 21 21 20 20 20 20 19 19 19 19 19 19 19 19 19 19 18 18 18 18 18 18 18 18 18 17 17 17 17 17 17 17 17 17 17 17 17
22 23 23 23 22 22 22 21 21 21 20 20 20 19 19 19 19 19 19 19 19 19 18 18 18 18 18 18 18 18 18 17 17 17 17 17 17 17 17 17 17 17 17
23 23 23 23 23 22 22 22 21 21 21 20 20 20 19 19 19 19 19 19 19 19 18 18 18 18 18 18 18 18 18 18 17 17 17 17 17 17 17 17 17 16 16
23 23 23 23 23 22 22 22 21 21 21 20 20 20 20 19 19 19 19 19 19 19 18 18 18 18 18 18 18 18 18 17 17 17 17 17 17 17 17 17 17 16 16
23 23 23 23 23 22 22 22 21 21 21 20 20 20 20 20 19 19 19 19 19 19 18 18 18 18 18 18 18 18 17 17 17 17 17 17 17 17 17 16 16 16 16
22 22 22 22 22 22 22 22 21 21 21 21 20 20 20 20 20 20 19 19 19 18 18 18 18 18 18 18 18 18 17 17 17 17 17 17 16 16 16 16 16 16 16
22 22 22 22 22 22 22 22 21 21 21 20 20 20 20 20 20 20 19 19 19 18 18 18 18 18 18 18 18 17 17 17 17 17 17 16 16 16 16 16 16 16 16
21 21 21 21 21 22 21 21 21 21 21 20 20 20 20 20 20 19 19 19 18 18 18 18 18 18 18 18 17 17 17 17 17 16 16 16 16 16 16 16 16 16 16
21 21 21 21 21 21 21 21 21 21 20 20 20 20 20 20 19 19 19 19 18 18 18 18 18 18 17 17 17 17 17 17 16 16 16 16 16 16 16 16 16 15 15
20 20 20 20 21 21 21 21 21 20 20 20 20 20 19 19 19 19 18 18 18 18 18 18 17 17 17 17 17 17 17 16 16 16 16 16 16 16 16 15 15 15 15
20 20 20 20 20 20 20 20 20 20 20 20 20 19 19 19 19 18 18 18 18 18 17 17 17 17 17 17 16 16 16 16 16 16 16 16 16 15 15 15 15 15 15
20 20 20 20 20 20 20 20 20 20 20 20 19 19 19 19 18 18 18 18 17 17 17 17 17 17 17 16 16 16 16 16 16 16 16 15 15 15 15 15 15 15 15
20 20 20 20 20 20 19 19 19 19 19 19 19 19 18 18 18 18 18 17 17 17 17 17 17 17 16 16 16 16 16 15 15 15 15 15 15 15 14 14 15 15 14
19 19 19 19 19 19 19 19 18 18 18 18 18 18 18 18 18 17 17 17 17 17 17 16 16 16 16 16 15 15 15 15 15 15 15 14 14 15 14 14 14 14 14
19 19 19 19 19 18 18 18 18 18 18 18 17 17 17 17 17 17 17 17 16 16 16 16 16 16 16 15 15 15 15 15 14 14 14 14 14 14 14 14 14 14 13
18 18 18 18 18 18 17 17 17 17 17 17 17 16 16 16 16 16 16 16 16 16 16 15 15 15 15 15 15 15 14 14 14 14 14 14 14 14 14 13 13 13 13
18 18 17 17 17 17 17 17 17 16 16 16 16 16 16 16 16 16 15 15 15 15 15 15 14 14 14 14 14 14 14 14 14 14 14 14 14 13 13 13 13 13 12
16 16 16 16 16 16 16 16 16 16 15 15 15 15 15 15 15 15 15 15 15 15 14 14 14 14 14 14 14 14 14 14 13 13 13 13 13 13 13 13 13 12 12
16 16 15 16 16 16 16 15 15 15 15 15 15 15 15 15 15 15 14 14 14 14 14 14 14 14 14 14 14 13 13 13 13 13 13 13 13 12 12 12 12 12 12
15 15 15 15 15 15 15 15 15 15 14 14 15 14 14 14 14 14 14 14 14 14 14 14 14 13 13 13 13 13 13 13 13 12 12 12 12 12 12 12 12 12 12
Wind_Speed
9 9 9 10 9 8 8 8 8 7 6 4 3 3 3 2 2 4 5 6 6 6 5 3 3 3 3 3 2 1 1 1 0 1 2 2 1 1 2 2 2 3 4
8 9 10 10 10 10 10 9 9 8 7 6 4 3 3 2 2 2 3 5 5 6 5 5 4 3 3 2 2 2 1 1 1 1 1 2 3 2 1 1 2 3 2
11 11 11 12 11 11 12 11 10 9 8 6 4 2 2 1 0 1 2 3 4 5 5 5 4 4 4 3 3 3 3 2 1 1 2 1 2 2 2 2 1 2 2
11 11 11 11 12 12 10 9 9 9 8 7 7 7 5 5 4 3 2 2 4 5 5 5 5 4 3 3 3 3 3 2 2 1 1 2 2 1 2 2 2 2 2
13 12 13 13 12 11 10 9 8 9 8 8 8 7 6 5 3 2 3 3 3 4 5 6 5 5 4 4 4 3 3 3 3 2 1 1 1 2 2 3 3 3 2
12 11 11 10 10 10 10 9 9 9 8 9 8 8 8 6 4 4 4 3 3 3 4 5 5 5 5 5 5 4 4 4 3 3 2 2 2 2 2 3 3 3 3
10 10 11 12 12 12 12 11 11 10 9 9 9 9 8 8 7 6 6 5 3 3 5 4 5 5 5 5 5 4 4 4 4 4 3 3 3 2 2 2 2 3 3
8 10 12 13 13 13 13 12 12 11 10 10 9 8 7 6 6 6 5 5 5 5 5 5 5 5 5 5 4 4 4 4 4 4 4 3 4 3 3 3 2 2 2
7 9 10 11 11 12 13 13 13 12 11 11 9 8 8 7 7 6 6 5 4 5 5 5 5 5 5 5 5 4 5 4 4 4 4 3 3 3 4 4 3 3 3
5 6 8 9 10 11 11 11 12 12 11 11 10 10 9 8 7 6 6 6 5 5 4 4 5 5 5 5 5 4 4 4 4 3 3 3 3 3 3 3 3 4 4
5 5 5 7 8 8 9 10 10 10 10 11 10 9 8 8 7 7 7 6 5 5 4 4 4 4 4 5 5 5 4 4 4 4 4 4 3 3 2 2 3 3 3
2 2 2 3 5 7 8 9 10 10 10 10 9 9 8 8 9 9 8 7 6 6 5 5 4 5 4 4 6 6 6 6 6 5 4 4 3 3 3 3 4 4 5
1 1 2 2 4 5 6 7 9 9 8 8 9 9 9 9 10 9 8 7 6 6 5 5 5 5 5 5 6 6 6 6 6 5 5 5 4 4 4 4 4 4 4
2 3 2 1 2 3 4 5 7 7 7 8 9 10 10 10 9 7 6 6 6 6 6 5 5 5 5 5 5 5 5 5 5 5 5 5 5 5 4 4 4 3 3
2 2 1 1 1 1 1 2 4 4 5 7 8 10 8 7 6 6 6 6 6 7 6 5 5 4 4 5 5 5 5 5 5 5 5 5 5 6 5 4 4 3 3
1 1 1 0 1 1 1 2 2 3 3 5 7 5 5 6 6 7 7 6 6 6 6 6 6 5 5 5 6 5 5 5 5 5 4 4 4 5 5 5 5 5 4
1 1 2 3 2 2 2 2 2 2 3 4 4 4 4 5 6 7 6 6 7 7 6 6 6 6 6 6 6 5 4 4 4 4 4 3 3 4 3 3 3 3 4
3 3 2 2 2 1 1 1 0 1 2 2 3 4 5 5 5 6 7 7 6 6 6 6 6 5 5 5 5 4 3 3 4 4 5 4 4 3 3 2 2 2 2
4 4 3 2 2 2 2 1 0 0 1 2 3 4 4 5 5 6 6 6 5 6 5 5 5 5 5 6 6 5 3 3 4 4 4 4 4 4 4 3 2 2 2
1 2 2 0 1 2 2 2 1 1 3 5 4 4 4 5 6 6 5 4 4 5 4 5 5 6 5 6 7 6 3 3 3 2 2 4 4 4 4 3 3 3 4
2 1 1 1 2 1 2 2 2 4 5 3 2 3 4 4 5 3 3 3 3 3 4 4 3 4 5 5 6 7 4 4 4 3 3 2 3 3 3 3 3 5 4
3 1 0 2 2 1 2 3 4 4 2 2 2 3 3 4 3 3 3 2 3 3 3 3 3 2 3 4 5 7 6 5 4 4 3 3 4 3 3 3 4 4 2
4 2 2 3 3 2 3 4 5 3 2 2 2 2 2 2 3 3 3 2 2 3 3 3 4 3 2 3 5 6 7 6 4 3 4 4 3 3 2 3 3 3 2
4 3 3 3 4 3 4 5 4 3 3 3 3 2 2 2 2 2 2 3 3 4 4 4 4 3 3 3 3 3 3 3 3 2 3 3 2 2 2 1 2 2 2
4 4 4 5 6 5 5 4 4 4 4 3 3 3 2 3 2 2 2 3 4 6 6 5 5 5 5 5 6 5 3 3 3 3 1 1 1 1 1 1 1 1 1
5 4 5 5 6 5 5 5 4 5 5 4 3 3 2 2 2 1 1 2 3 5 6 7 7 5 6 6 5 5 6 6 7 4 2 2 2 3 2 2 2 2 2
Wind_Direction
202 191 190 189 182 182 182 186 184 183 169 165 172 178 203 215 220 223 223 219 215 210 200 207 204 197 204 218 212 198 214 236 182 44 350 334 308 286 269 259 257 258 252
197 194 191 188 188 191 192 190 190 184 183 185 175 174 176 200 211 224 224 221 216 213 210 202 205 202 204 211 204 186 185 241 140 126 50 344 338 336 316 282 253 260 253
205 199 195 194 191 195 197 199 194 190 190 181 155 140 104 60 172 224 230 227 218 215 212 206 204 202 197 210 213 192 188 210 220 170 153 160 270 308 319 320 309 295 266
206 201 198 197 199 201 197 194 192 192 190 178 175 180 190 205 215 212 219 230 221 218 213 208 204 203 201 210 218 197 191 183 218 220 201 201 192 225 312 320 319 313 290
204 200 200 201 200 198 194 195 190 193 190 186 188 189 202 210 207 199 214 231 231 224 217 209 202 205 207 213 216 203 199 194 200 205 197 196 204 206 224 287 311 320 299
205 201 198 195 195 192 192 190 189 197 193 191 193 195 199 201 202 211 218 231 235 234 227 215 209 209 208 213 214 211 210 210 209 209 201 191 194 205 206 244 279 297 299
197 193 191 193 196 194 194 191 192 200 197 196 201 204 204 201 206 211 215 221 227 231 232 221 214 214 214 214 207 204 216 214 214 216 217 215 217 198 192 214 258 280 292
197 199 199 199 199 197 194 192 195 201 199 199 203 203 201 206 212 212 212 216 223 229 226 216 216 216 213 213 200 208 215 210 218 225 217 220 228 213 204 201 213 276 291
202 207 204 198 196 196 195 195 195 200 201 201 199 201 203 207 211 209 210 216 223 228 219 214 215 213 208 205 198 213 220 213 218 226 222 226 235 225 223 215 206 213 276
204 207 203 197 196 195 195 195 197 199 199 198 203 209 208 207 206 204 211 215 220 223 214 216 218 217 213 208 202 215 220 215 226 222 223 234 242 236 228 220 218 211 222
212 208 204 196 187 185 187 193 199 198 198 200 203 206 206 204 202 206 216 217 215 211 212 214 215 217 220 214 209 219 216 219 232 231 222 233 232 235 235 227 225 220 213
210 208 191 169 172 181 188 193 198 202 203 200 199 205 204 201 206 213 216 210 209 210 210 210 214 222 224 216 216 223 221 220 228 232 227 239 233 233 236 229 235 233 222
140 98 100 146 176 182 192 198 201 205 204 196 198 204 208 209 213 215 215 209 208 209 209 209 217 227 227 220 221 223 223 223 228 227 226 232 225 238 239 232 240 245 241
103 101 107 173 194 184 192 203 208 205 200 197 201 207 211 213 215 214 215 215 212 211 213 215 221 225 228 225 224 222 222 226 230 231 228 229 225 232 235 238 238 236 234
111 126 140 196 197 185 217 221 216 206 198 199 209 215 214 210 208 208 210 212 213 215 208 208 220 224 225 231 224 222 224 225 233 239 235 233 231 229 226 233 232 224 227
160 170 173 191 214 204 227 241 226 216 199 203 212 215 205 202 206 208 207 205 210 211 203 207 215 222 233 235 224 216 221 222 227 236 238 237 235 232 230 228 226 219 221
203 215 216 220 229 236 226 227 233 217 189 200 206 206 206 206 208 207 202 207 211 210 211 215 214 222 234 230 224 216 212 217 223 225 229 239 239 229 235 237 238 245 239
220 233 238 245 246 242 249 259 166 172 198 211 213 208 202 204 203 203 210 212 207 209 217 219 217 219 228 216 212 207 204 216 225 225 223 225 238 228 209 218 240 261 263
224 226 226 225 221 202 186 154 51 249 224 231 230 219 208 210 211 213 217 215 209 213 214 214 211 213 223 207 200 191 197 216 231 233 224 217 224 220 192 189 223 268 285
263 246 244 184 181 218 165 141 198 231 238 239 237 225 212 213 217 221 221 212 205 208 207 219 215 210 218 211 204 193 194 210 224 231 231 221 207 189 177 188 204 240 266
284 239 196 214 234 216 162 175 213 236 249 255 252 238 221 223 225 220 213 206 199 198 204 214 218 212 213 213 209 198 197 206 211 215 222 222 191 182 184 188 205 223 237
317 294 257 278 269 202 172 207 231 236 235 227 229 244 243 236 227 213 213 198 186 198 213 218 231 235 220 207 208 206 208 202 203 212 211 203 187 191 198 203 213 214 215
308 303 260 271 278 240 202 221 239 221 195 203 231 246 248 237 213 199 206 201 191 201 219 219 228 240 236 221 215 215 214 204 197 202 194 190 186 190 201 206 208 197 192
299 292 270 263 269 260 237 228 229 205 186 205 227 233 229 238 226 209 208 206 211 213 217 221 225 231 231 228 214 209 203 186 177 170 156 157 169 179 191 205 206 202 205
290 283 268 261 262 259 252 242 222 189 199 219 226 235 231 227 230 229 236 234 231 219 213 218 210 212 231 233 209 200 203 198 186 158 141 135 142 177 207 224 239 233 223
275 276 275 271 272 268 263 258 233 200 199 220 228 223 228 239 233 229 304 300 255 247 227 222 216 220 220 209 204 199 186 176 166 151 171 202 210 215 224 233 244 245 246
Height
1521 1524 1526 1529 1532 1534 1536 1539 1542 1544 1547 1549 1551 1553 1555 1557 1559 1560 1561 1562 1563 1564 1565 1565 1566 1566 1567 1567 1567 1566 1566 1567 1566 1566 1566 1566 1566 1566 1565 1565 1565 1565 1565
1518 1521 1524 1526 1529 1531 1534 1537 1539 1542 1545 1547 1549 1552 1554 1555 1557 1558 1560 1561 1562 1563 1563 1564 1565 1565 1565 1565 1565 1565 1565 1565 1565 1565 1565 1565 1565 1564 1564 1564 1564 1564 1564
1514 1517 1520 1522 1525 1528 1531 1534 1537 1540 1543 1545 1548 1550 1552 1553 1555 1556 1558 1559 1560 1561 1562 1562 1563 1563 1564 1564 1564 1564 1564 1564 1564 1564 1565 1565 1563 1563 1563 1562 1562 1562 1562
1511 1514 1516 1519 1521 1525 1529 1532 1535 1538 1541 1543 1545 1547 1549 1550 1552 1554 1556 1557 1558 1559 1560 1560 1561 1561 1562 1562 1562 1562 1562 1562 1562 1563 1563 1564 1563 1563 1562 1561 1561 1561 1561
1506 1509 1512 1515 1518 1522 1526 1529 1533 1535 1538 1540 1542 1544 1546 1548 1550 1552 1553 1555 1556 1557 1558 1558 1559 1559 1559 1560 1560 1560 1560 1561 1561 1561 1561 1561 1562 1561 1561 1560 1559 1559 1559
1502 1506 1509 1513 1516 1519 1523 1526 1529 1532 1535 1537 1539 1541 1543 1545 1547 1549 1550 1552 1553 1554 1555 1556 1556 1557 1557 1557 1558 1558 1558 1558 1559 1559 1559 1559 1559 1559 1559 1558 1557 1556 1556
1499 1502 1505 1508 1511 1514 1518 1521 1524 1527 1531 1533 1536 1538 1540 1542 1544 1545 1547 1549 1550 1551 1552 1553 1554 1554 1554 1555 1555 1556 1556 1556 1556 1557 1557 1557 1557 1557 1557 1556 1555 1554 1554
1496 1498 1500 1503 1506 1510 1513 1517 1520 1523 1526 1529 1531 1534 1536 1538 1540 1542 1544 1545 1547 1548 1549 1550 1551 1551 1552 1552 1553 1553 1553 1554 1554 1554 1554 1554 1555 1555 1554 1554 1553 1552 1551
1492 1495 1497 1500 1502 1505 1508 1512 1516 1520 1522 1525 1528 1530 1532 1535 1537 1539 1541 1542 1544 1545 1546 1547 1547 1548 1549 1549 1550 1550 1551 1551 1551 1551 1551 1551 1552 1552 1551 1551 1551 1551 1549
1489 1492 1494 1496 1499 1502 1505 1509 1512 1516 1519 1522 1524 1526 1528 1531 1533 1535 1537 1539 1540 1542 1543 1543 1544 1545 1545 1546 1546 1547 1547 1548 1547 1548 1548 1548 1548 1548 1548 1548 1548 1548 1547
1488 1489 1491 1494 1496 1500 1503 1506 1509 1512 1514 1517 1520 1522 1524 1527 1529 1531 1533 1534 1536 1538 1539 1540 1541 1541 1542 1543 1543 1543 1544 1544 1545 1544 1544 1544 1545 1545 1545 1545 1545 1544 1544
1487 1488 1490 1492 1494 1497 1500 1503 1505 1508 1510 1513 1516 1518 1520 1522 1524 1526 1528 1530 1532 1534 1535 1536 1537 1537 1538 1539 1539 1540 1540 1540 1541 1541 1541 1541 1541 1542 1541 1541 1541 1541 1540
1486 1487 1489 1491 1493 1495 1497 1500 1502 1504 1507 1509 1512 1514 1516 1518 1520 1522 1524 1526 1527 1529 1530 1531 1532 1533 1534 1535 1535 1535 1536 1536 1537 1537 1537 1537 1538 1538 1538 1538 1538 1537 1537
1486 1487 1489 1490 1492 1493 1495 1497 1499 1502 1504 1506 1508 1510 1511 1514 1516 1518 1520 1522 1524 1524 1526 1527 1528 1529 1530 1530 1531 1531 1531 1532 1532 1533 1533 1534 1534 1534 1534 1534 1534 1533 1533
1486 1487 1488 1489 1490 1491 1493 1494 1496 1499 1500 1502 1504 1506 1508 1510 1512 1514 1515 1518 1519 1520 1522 1523 1524 1525 1525 1526 1526 1527 1527 1527 1528 1528 1529 1530 1530 1530 1530 1530 1530 1529 1529
1486 1487 1488 1489 1489 1490 1491 1492 1494 1495 1497 1498 1500 1502 1504 1506 1508 1509 1511 1512 1514 1516 1517 1518 1519 1520 1520 1521 1521 1522 1522 1523 1523 1524 1525 1525 1526 1526 1526 1526 1526 1526 1525
1486 1486 1487 1488 1489 1490 1490 1490 1491 1493 1494 1495 1497 1499 1500 1501 1503 1505 1506 1506 1509 1511 1512 1513 1514 1515 1515 1516 1517 1517 1518 1518 1519 1520 1520 1521 1521 1522 1522 1522 1522 1521 1521
1485 1486 1486 1486 1487 1488 1489 1490 1489 1490 1491 1492 1494 1495 1496 1497 1499 1500 1501 1502 1504 1506 1507 1508 1509 1509 1510 1511 1512 1513 1514 1514 1514 1515 1516 1517 1517 1517 1517 1517 1517 1517 1517
1485 1485 1485 1485 1486 1486 1486 1487 1486 1487 1488 1489 1490 1491 1492 1494 1495 1496 1497 1498 1499 1500 1501 1502 1504 1504 1505 1507 1508 1509 1509 1509 1510 1511 1511 1512 1512 1513 1513 1513 1513 1513 1512
1483 1483 1484 1483 1483 1483 1483 1483 1484 1485 1485 1486 1485 1487 1489 1490 1491 1491 1492 1493 1494 1494 1496 1497 1498 1500 1501 1502 1503 1504 1504 1505 1505 1506 1507 1507 1508 1508 1508 1508 1508 1508 1508
1482 1481 1481 1480 1480 1480 1480 1480 1481 1481 1481 1482 1482 1484 1485 1486 1487 1487 1487 1488 1488 1490 1491 1492 1494 1495 1496 1497 1498 1499 1500 1500 1500 1501 1502 1503 1504 1504 1504 1504 1504 1503 1504
1479 1479 1478 1478 1478 1478 1478 1477 1477 1477 1478 1479 1480 1481 1481 1483 1483 1484 1483 1484 1484 1485 1487 1488 1489 1491 1492 1492 1493 1494 1495 1496 1496 1496 1497 1498 1499 1499 1499 1500 1499 1500 1499
1477 1476 1476 1475 1475 1475 1475 1474 1474 1475 1475 1475 1476 1477 1477 1479 1480 1480 1480 1480 1480 1482 1483 1484 1485 1486 1487 1488 1488 1489 1490 1491 1491 1491 1492 1493 1493 1494 1495 1495 1495 1495 1495
1475 1474 1473 1472 1471 1471 1471 1471 1471 1472 1471 1472 1472 1473 1473 1474 1475 1476 1476 1476 1477 1477 1478 1480 1480 1481 1482 1483 1483 1484 1485 1486 1486 1487 1487 1488 1489 1489 1490 1490 1491 1491 1491
1473 1472 1471 1469 1468 1468 1468 1468 1468 1469 1469 1469 1470 1470 1470 1471 1471 1472 1472 1472 1473 1474 1475 1475 1476 1477 1477 1478 1479 1479 1480 1481 1481 1482 1482 1483 1484 1484 1485 1485 1486 1486 1486
1469 1468 1468 1467 1466 1465 1465 1465 1465 1465 1465 1466 1466 1466 1467 1467 1468 1467 1468 1468 1470 1470 1471 1471 1472 1472 1473 1474 1474 1475 1476 1476 1477 1478 1478 1478 1479 1480 1480 1481 1481 1481 1482